This is the latest recevied weather packets stored in our database for station/object KE8CZD. If no packets are shown the sender has not sent any weather packets the latest 10 day(s).
| Time | Temp. | Humidity | Pressure | Rain* | Wind** | Luminosity | Snow |
|---|---|---|---|---|---|---|---|
| 1778173604 | 11.11° C | 32% | 1009.2 hPa | 0 mm | - | - | - |
| 1778173244 | 11.67° C | 33% | 1009.2 hPa | 0 mm | - | - | - |
| 1778172884 | 11.11° C | 33% | 1009.3 hPa | 0 mm | - | - | - |
| 1778172524 | 11.67° C | 32% | 1009.3 hPa | 0 mm | - | - | - |
| 1778172164 | 11.67° C | 32% | 1009.2 hPa | 0 mm | - | - | - |
| 1778171804 | 11.67° C | 32% | 1009.1 hPa | 0 mm | - | - | - |
| 1778171444 | 11.67° C | 33% | 1009.2 hPa | 0 mm | - | - | - |
| 1778171084 | 11.11° C | 35% | 1009.1 hPa | 0 mm | - | - | - |
| 1778170724 | 10.56° C | 36% | 1009.4 hPa | 0 mm | - | - | - |
| 1778170364 | 10.56° C | 36% | 1009.3 hPa | 0 mm | - | - | - |
| 1778170004 | 10.56° C | 36% | 1009.3 hPa | 0 mm | - | - | - |
| 1778169643 | 11.11° C | 35% | 1009.3 hPa | 0 mm | - | - | - |
| 1778169283 | 11.11° C | 37% | 1009.3 hPa | 0 mm | - | - | - |
| 1778168987 | 11.11° C | 37% | 1009.3 hPa | 0 mm | - | - | - |
| 1778168924 | 11.11° C | 37% | 1009.3 hPa | 0 mm | - | - | - |
| 1778168564 | 11.11° C | 36% | 1009.2 hPa | 0 mm | - | - | - |
| 1778168204 | 11.11° C | 36% | 1009.2 hPa | 0 mm | - | - | - |
| 1778167844 | 11.67° C | 37% | 1009.1 hPa | 0 mm | - | - | - |
| 1778167484 | 10.56° C | 36% | 1009.2 hPa | 0 mm | - | - | - |
| 1778167123 | 11.11° C | 34% | 1009 hPa | 0 mm | - | - | - |
| 1778166764 | 11.11° C | 35% | 1009 hPa | 0 mm | - | - | - |
| 1778166403 | 11.11° C | 36% | 1009.2 hPa | 0 mm | - | - | - |
| 1778166044 | 10.56° C | 35% | 1009.3 hPa | 0 mm | - | - | - |
| 1778165685 | 10.56° C | 36% | 1009.2 hPa | 0 mm | - | - | - |
| 1778165323 | 10.56° C | 37% | 1009.2 hPa | 0 mm | - | - | - |
* Rain latest hour (hover to see other rain measurements)
** Current wind speed in m/s (hover to see current wind gust speed)